Terminal Aerodrome Forecast
Issued by NWS

Current Version | Previous Version | Text Only | Print | Product List | Glossary On
Versions: 1 2 3 4 5 6 7 8 9 10 11 12 13 14 15 16 17
266
FTUS41 KCAR 191720
TAFPQI
TAF
KPQI 191720Z 1918/2018 24005KT P6SM OVC019
     FM191900 25005KT P6SM OVC020
     FM200600 29005KT P6SM BKN015
     FM200900 33004KT P6SM SCT040
     FM201000 33004KT P6SM BKN025=

USA.gov is the U.S. government's official web portal to all federal, state and local government web resources and services.